DW8231 Weather Reports


Display with metric or nautical units.
time (UTC)temp
F
wind
direction
speed
MPH
gust
MPH
rain 1hr
in
rain 24hr
in
rain mn
in
humidity
%
barometer
mb
20260831234037 89 290 0.0 0.0 0.00 0.00 0.00 52 1009.0
20260831233537 89 290 0.0 0.0 0.00 0.00 0.00 52 1009.0
20260831233037 89 290 0.0 0.0 0.00 0.00 0.00 50 1008.9
20260831232037 90 290 0.0 0.0 0.00 0.00 0.00 48 1008.9
20260831231545 90 290 0.0 0.0 0.00 0.00 0.00 48 1008.9
20260831231036 90 290 0.0 7.0 0.00 0.00 0.00 47 1009.0
20260831230538 91 290 0.0 7.0 0.00 0.00 0.00 45 1008.8
20260831230039 91 288 2.0 5.0 0.00 0.00 0.00 44 1008.8
20260831225536 91 286 0.0 6.0 0.00 0.00 0.00 45 1008.8
20260831225038 91 286 1.0 5.0 0.00 0.00 0.00 43 1008.8
20260831224535 92 286 0.0 5.0 0.00 0.00 0.00 43 1008.7
20260831224036 92 286 0.0 4.0 0.00 0.00 0.00 42 1008.6
20260831223536 92 285 1.0 4.0 0.00 0.00 0.00 44 1008.6
20260831223037 92 286 0.0 3.0 0.00 0.00 0.00 42 1008.5
20260831222034 92 286 0.0 3.0 0.00 0.00 0.00 42 1008.5
20260831221537 92 286 0.0 5.0 0.00 0.00 0.00 41 1008.5
20260831221034 93 286 1.0 5.0 0.00 0.00 0.00 40 1008.5
20260831220536 93 285 0.0 2.0 0.00 0.00 0.00 40 1008.5
20260831220034 93 285 0.0 2.0 0.00 0.00 0.00 38 1008.5
20260831215535 93 284 0.0 5.0 0.00 0.00 0.00 38 1008.5
20260831215034 93 286 0.0 3.0 0.00 0.00 0.00 39 1008.5
20260831214534 93 285 1.0 5.0 0.00 0.00 0.00 38 1008.4
20260831214035 93 285 0.0 5.0 0.00 0.00 0.00 36 1008.4
20260831213533 93 285 2.0 5.0 0.00 0.00 0.00 33 1008.4
20260831213035 93 284 2.0 4.0 0.00 0.00 0.00 36 1008.4
20260831212033 93 284 1.0 4.0 0.00 0.00 0.00 36 1008.3
20260831211535 94 284 0.0 4.0 0.00 0.00 0.00 38 1008.3
20260831211032 93 284 1.0 4.0 0.00 0.00 0.00 39 1008.3
20260831210533 93 284 0.0 7.0 0.00 0.00 0.00 38 1008.2
20260831210031 93 284 1.0 8.0 0.00 0.00 0.00 46 1008.3
20260831205532 93 284 3.0 8.0 0.00 0.00 0.00 44 1008.3
20260831205031 93 284 2.0 8.0 0.00 0.00 0.00 44 1008.3
20260831204535 93 285 2.0 7.0 0.00 0.00 0.00 45 1008.2
20260831204031 93 286 2.0 8.0 0.00 0.00 0.00 46 1008.2
20260831203530 93 294 0.0 0.0 0.00 0.00 0.00 42 1008.3
20260831203029 92 294 0.0 0.0 0.00 0.00 0.00 41 1008.2
20260831202030 92 296 0.0 0.0 0.00 0.00 0.00 45 1008.2
20260831201530 92 295 0.0 0.0 0.00 0.00 0.00 45 1008.2
20260831201029 92 294 0.0 0.0 0.00 0.00 0.00 47 1008.2
20260831200528 92 295 0.0 0.0 0.00 0.00 0.00 49 1008.2
20260831200034 92 295 0.0 0.0 0.00 0.00 0.00 50 1008.2
20260831195529 92 295 0.0 0.0 0.00 0.00 0.00 50 1008.1
20260831195030 92 294 0.0 0.0 0.00 0.00 0.00 52 1008.1
20260831194525 92 294 0.0 0.0 0.00 0.00 0.00 51 1008.1
20260831194025 91 294 0.0 0.0 0.00 0.00 0.00 54 1008.2
20260831193526 91 294 0.0 0.0 0.00 0.00 0.00 55 1008.2
20260831193026 91 287 0.0 0.0 0.00 0.00 0.00 56 1008.2
20260831192021 91 286 0.0 0.0 0.00 0.00 0.00 55 1008.1
20260831191523 91 287 0.0 0.0 0.00 0.00 0.00 57 1008.1
20260831191020 91 286 0.0 0.0 0.00 0.00 0.00 58 1008.2
20260831190519 90 286 0.0 0.0 0.00 0.00 0.00 59 1008.2
20260831190018 90 311 0.0 0.0 0.00 0.00 0.00 57 1008.2
20260831185517 90 314 0.0 0.0 0.00 0.00 0.00 56 1008.1
20260831185015 89 319 0.0 0.0 0.00 0.00 0.00 58 1008.1
20260831184514 89 319 0.0 0.0 0.00 0.00 0.00 61 1008.1
20260831184013 89 292 0.0 0.0 0.00 0.00 0.00 62 1008.1
20260831183513 89 292 0.0 0.0 0.00 0.00 0.00 61 1008.1
20260831183015 89 293 0.0 0.0 0.00 0.00 0.00 64 1008.0
20260831182012 88 286 0.0 0.0 0.00 0.00 0.00 64 1008.1
20260831181510 88 285 0.0 0.0 0.00 0.00 0.00 65 1008.2
20260831181009 87 285 0.0 0.0 0.00 0.00 0.00 65 1008.4
20260831180509 87 285 0.0 0.0 0.00 0.00 0.00 66 1008.4
20260831180006 87 285 0.0 0.0 0.00 0.00 0.00 69 1008.4
20260831175505 87 285 0.0 0.0 0.00 0.00 0.00 69 1008.5
20260831175005 87 285 0.0 0.0 0.00 0.00 0.00 70 1008.5
20260831174505 86 285 0.0 0.0 0.00 0.00 0.00 70 1008.5
20260831174004 86 285 0.0 0.0 0.00 0.00 0.00 70 1008.5
20260831173504 86 285 0.0 0.0 0.00 0.00 0.00 70 1008.5
20260831173003 86 285 0.0 0.0 0.00 0.00 0.00 70 1008.6
20260831172002 86 275 0.0 0.0 0.00 0.00 0.00 70 1008.7
20260831171502 86 275 0.0 0.0 0.00 0.00 0.00 71 1008.8
20260831171001 86 274 0.0 0.0 0.00 0.00 0.00 71 1008.8
20260831170601 86 274 0.0 0.0 0.00 0.00 0.00 71 1008.8
20260831165602 85 273 0.0 0.0 0.00 0.00 0.00 72 1008.7
20260831165056 85 273 0.0 0.0 0.00 0.00 0.00 73 1008.7
20260831164558 84 273 0.0 0.0 0.00 0.00 0.00 74 1008.7
20260831164055 84 273 0.0 0.0 0.00 0.00 0.00 75 1008.6
20260831163553 84 269 0.0 0.0 0.00 0.00 0.00 75 1008.5
20260831163053 83 269 0.0 0.0 0.00 0.00 0.00 76 1008.5
20260831162651 83 269 0.0 0.0 0.00 0.00 0.00 77 1008.5
20260831162052 83 269 0.0 0.0 0.00 0.00 0.00 77 1008.5
20260831161551 82 261 0.0 0.0 0.00 0.00 0.00 77 1008.4
20260831161054 82 259 0.0 0.0 0.00 0.00 0.00 78 1008.5
20260831160554 82 259 0.0 0.0 0.00 0.00 0.00 79 1008.5
20260831160051 82 263 0.0 0.0 0.00 0.00 0.00 80 1008.4
20260831155551 81 263 0.0 0.0 0.00 0.00 0.00 81 1008.4
20260831155051 81 266 0.0 0.0 0.00 0.00 0.00 80 1008.4
20260831154551 81 269 0.0 0.0 0.00 0.00 0.00 80 1008.4
20260831154050 80 261 0.0 0.0 0.00 0.00 0.00 82 1008.3
20260831153553 80 261 0.0 0.0 0.00 0.00 0.00 82 1008.4
20260831153049 80 261 0.0 0.0 0.00 0.00 0.00 83 1008.3
20260831152651 79 260 0.0 0.0 0.00 0.00 0.00 83 1008.1
20260831152051 79 261 0.0 0.0 0.00 0.00 0.00 83 1008.2
20260831151651 79 261 0.0 0.0 0.00 0.00 0.00 84 1008.1
20260831151051 79 261 0.0 0.0 0.00 0.00 0.00 84 1008.1
20260831150550 78 261 0.0 0.0 0.00 0.00 0.00 85 1007.9
20260831150050 78 261 0.0 0.0 0.00 0.00 0.00 85 1008.0
20260831145550 78 260 0.0 0.0 0.00 0.00 0.00 86 1007.9
20260831145050 78 257 0.0 0.0 0.00 0.00 0.00 86 1007.8
20260831144553 77 262 0.0 0.0 0.00 0.00 0.00 86 1007.6
20260831144050 77 261 0.0 0.0 0.00 0.00 0.00 87 1007.6
20260831143550 77 261 0.0 0.0 0.00 0.00 0.00 87 1007.6
20260831143055 76 257 0.0 0.0 0.00 0.00 0.00 88 1007.6
20260831142651 76 249 0.0 0.0 0.00 0.00 0.00 89 1007.6
20260831142050 76 248 0.0 0.0 0.00 0.00 0.00 89 1007.6
20260831141551 76 246 0.0 0.0 0.00 0.00 0.00 89 1007.5
20260831141049 75 246 0.0 0.0 0.00 0.00 0.00 90 1007.5
20260831140549 75 252 0.0 0.0 0.00 0.00 0.00 91 1007.5
20260831140049 75 254 0.0 0.0 0.00 0.00 0.00 91 1007.4
20260831135549 75 254 0.0 0.0 0.00 0.00 0.00 91 1007.4
20260831135049 74 244 0.0 0.0 0.00 0.00 0.00 92 1007.4
20260831134549 74 236 0.0 4.0 0.00 0.00 0.00 92 1007.2
20260831134048 74 233 0.0 4.0 0.00 0.00 0.00 93 1007.1
20260831133548 74 209 1.0 4.0 0.00 0.00 0.00 93 1007.2
20260831133048 73 182 0.0 2.0 0.00 0.00 0.00 93 1007.1
20260831132048 73 182 0.0 0.0 0.00 0.00 0.00 93 1006.7
20260831131551 72 182 0.0 0.0 0.00 0.00 0.00 94 1006.8
20260831131048 72 182 0.0 0.0 0.00 0.00 0.00 93 1006.8
20260831130547 72 181 0.0 0.0 0.00 0.00 0.00 94 1006.8
20260831130054 72 181 0.0 0.0 0.00 0.00 0.00 94 1006.9
20260831125547 72 175 0.0 0.0 0.00 0.00 0.00 94 1006.9
20260831125048 71 160 0.0 0.0 0.00 0.00 0.00 94 1007.0
20260831124547 71 146 0.0 0.0 0.00 0.00 0.00 94 1007.0
20260831124048 71 145 0.0 0.0 0.00 0.00 0.00 94 1007.0
20260831123547 71 145 0.0 0.0 0.00 0.00 0.00 94 1006.9
20260831123047 71 145 0.0 0.0 0.00 0.00 0.00 94 1006.8
20260831122648 70 145 0.0 0.0 0.00 0.00 0.00 94 1006.8
20260831122048 70 145 0.0 0.0 0.00 0.00 0.00 94 1006.8
20260831121546 70 145 0.0 0.0 0.00 0.00 0.00 93 1006.8
20260831121046 70 145 0.0 0.0 0.00 0.00 0.00 93 1006.7
20260831120545 70 145 0.0 0.0 0.00 0.00 0.00 93 1006.6
20260831120045 70 145 0.0 0.0 0.00 0.00 0.00 93 1006.4
20260831115545 70 145 0.0 0.0 0.00 0.00 0.00 93 1006.3
20260831115045 70 145 0.0 0.0 0.00 0.00 0.00 93 1006.4
20260831114545 70 145 0.0 0.0 0.00 0.00 0.00 93 1006.4
20260831114045 70 145 0.0 0.0 0.00 0.00 0.00 93 1006.2
20260831113545 70 145 0.0 0.0 0.00 0.00 0.00 93 1006.1
20260831113045 70 145 0.0 0.0 0.00 0.00 0.00 93 1006.1
20260831112646 70 145 0.0 0.0 0.00 0.00 0.00 93 1006.1
20260831112045 70 145 0.0 0.0 0.00 0.00 0.00 93 1006.0
20260831111546 71 145 0.0 0.0 0.00 0.00 0.00 93 1006.1
20260831111045 71 145 0.0 0.0 0.00 0.00 0.00 93 1006.0
20260831110545 71 146 0.0 0.0 0.00 0.00 0.00 93 1006.0
20260831110047 71 146 0.0 0.0 0.00 0.00 0.00 93 1005.9
20260831105548 71 146 0.0 0.0 0.00 0.00 0.00 93 1005.9
20260831105046 71 144 0.0 0.0 0.00 0.00 0.00 93 1005.8
20260831104545 71 144 0.0 0.0 0.00 0.00 0.00 93 1005.9
20260831104045 71 144 0.0 0.0 0.00 0.00 0.00 93 1005.9
20260831103545 71 144 0.0 0.0 0.00 0.00 0.00 93 1005.9
20260831103045 71 145 0.0 0.0 0.00 0.00 0.00 93 1006.0
20260831102646 71 145 0.0 0.0 0.00 0.00 0.00 93 1005.9
20260831102047 71 145 0.0 0.0 0.00 0.00 0.00 93 1005.9
20260831101546 71 144 0.0 0.0 0.00 0.00 0.00 93 1005.9
20260831101046 71 147 0.0 0.0 0.00 0.00 0.00 93 1005.9
20260831100547 71 147 0.0 0.0 0.00 0.00 0.00 93 1005.9
20260831100045 71 147 0.0 0.0 0.00 0.00 0.00 93 1006.0
20260831095545 71 148 0.0 0.0 0.00 0.00 0.00 93 1006.0
20260831095045 71 145 0.0 0.0 0.00 0.00 0.00 93 1006.0
20260831094545 71 146 0.0 0.0 0.00 0.00 0.00 93 1006.0
20260831094045 71 127 0.0 0.0 0.00 0.00 0.00 92 1005.9
20260831093544 71 131 0.0 0.0 0.00 0.00 0.00 92 1005.9
20260831093045 71 119 0.0 0.0 0.00 0.00 0.00 92 1005.9
20260831092645 71 126 0.0 0.0 0.00 0.00 0.00 92 1006.0
20260831092045 71 126 0.0 0.0 0.00 0.00 0.00 92 1006.0
20260831091554 71 127 0.0 0.0 0.00 0.00 0.00 92 1006.1
20260831091045 71 126 0.0 0.0 0.00 0.00 0.00 92 1006.0
20260831090545 71 126 0.0 0.0 0.00 0.00 0.00 92 1006.0
20260831090045 70 125 0.0 0.0 0.00 0.00 0.00 92 1006.0
20260831085545 70 125 0.0 0.0 0.00 0.00 0.00 92 1005.9
20260831085047 70 123 0.0 0.0 0.00 0.00 0.00 92 1005.8
20260831084545 70 120 0.0 0.0 0.00 0.00 0.00 92 1005.8
20260831084045 71 120 0.0 0.0 0.00 0.00 0.00 92 1005.9
20260831083544 71 120 0.0 0.0 0.00 0.00 0.00 92 1005.8
20260831083045 71 120 0.0 0.0 0.00 0.00 0.00 91 1005.9
20260831082646 71 119 0.0 0.0 0.00 0.00 0.00 91 1005.8
20260831082043 71 119 0.0 0.0 0.00 0.00 0.00 91 1005.8
20260831081543 71 119 0.0 0.0 0.00 0.00 0.00 91 1005.8
20260831081043 71 119 0.0 0.0 0.00 0.00 0.00 91 1005.8
20260831080545 71 120 0.0 0.0 0.00 0.00 0.00 91 1005.7
20260831080042 71 128 0.0 0.0 0.00 0.00 0.00 91 1005.8
20260831075542 71 135 0.0 0.0 0.00 0.00 0.00 91 1005.9
20260831075041 71 130 0.0 0.0 0.00 0.00 0.00 91 1005.8
20260831074541 71 126 0.0 0.0 0.00 0.00 0.00 91 1005.8
20260831074041 71 125 0.0 0.0 0.00 0.00 0.00 91 1005.8
20260831073540 71 143 0.0 0.0 0.00 0.00 0.00 90 1005.8
20260831073039 71 127 0.0 0.0 0.00 0.00 0.00 90 1005.8
20260831072640 71 125 0.0 0.0 0.00 0.00 0.00 90 1005.8
20260831072038 71 115 0.0 0.0 0.00 0.00 0.00 90 1005.8
20260831071537 71 123 0.0 0.0 0.00 0.00 0.00 90 1006.0
20260831071039 71 124 0.0 0.0 0.00 0.00 0.00 90 1006.1
20260831070537 71 127 0.0 0.0 0.00 0.00 0.00 90 1006.1
20260831070037 71 117 0.0 0.0 0.00 0.00 0.00 90 1006.2
20260831065538 71 124 0.0 0.0 0.00 0.00 0.00 90 1006.4
20260831065038 71 123 0.0 0.0 0.00 0.00 0.00 90 1006.4
20260831064537 71 122 0.0 0.0 0.00 0.00 0.00 90 1006.5
20260831064037 71 128 0.0 0.0 0.00 0.00 0.00 90 1006.5
20260831063536 71 123 0.0 0.0 0.00 0.00 0.00 89 1006.6
20260831063037 71 123 0.0 0.0 0.00 0.00 0.00 89 1006.6
20260831062037 71 122 0.0 0.0 0.00 0.00 0.00 89 1006.7
20260831061537 71 123 0.0 0.0 0.00 0.00 0.00 89 1006.6
20260831061036 71 123 0.0 0.0 0.00 0.00 0.00 89 1006.6
20260831060535 72 119 0.0 0.0 0.00 0.00 0.00 89 1006.7
20260831060035 72 126 0.0 0.0 0.00 0.00 0.00 89 1006.8
20260831055539 72 129 0.0 0.0 0.00 0.00 0.00 88 1006.8
20260831055034 72 115 0.0 0.0 0.00 0.00 0.00 88 1006.9
20260831054538 72 113 0.0 0.0 0.00 0.00 0.00 88 1006.9
20260831054034 72 122 0.0 0.0 0.00 0.00 0.00 88 1007.0
20260831053534 72 122 0.0 0.0 0.00 0.00 0.00 87 1007.0
20260831053036 72 121 0.0 0.0 0.00 0.00 0.00 87 1007.1
20260831052633 72 122 0.0 0.0 0.00 0.00 0.00 87 1007.2
20260831052033 72 143 0.0 0.0 0.00 0.00 0.00 87 1007.2
20260831051533 72 145 0.0 0.0 0.00 0.00 0.00 87 1007.2
20260831051032 72 146 0.0 0.0 0.00 0.00 0.00 87 1007.3
20260831050533 72 146 0.0 0.0 0.00 0.00 0.00 87 1007.3
20260831050032 72 146 0.0 0.0 0.00 0.00 0.00 86 1007.3
20260831045532 72 146 0.0 0.0 0.00 0.00 0.00 86 1007.4
20260831045031 72 146 0.0 0.0 0.00 0.00 0.00 86 1007.4
20260831044530 72 146 0.0 0.0 0.00 0.00 0.00 86 1007.2
20260831044031 73 144 0.0 0.0 0.00 0.00 0.00 86 1007.3
20260831043532 73 144 0.0 0.0 0.00 0.00 0.00 86 1007.4
20260831043029 73 143 0.0 0.0 0.00 0.00 0.00 85 1007.5
20260831042629 73 141 0.0 0.0 0.00 0.00 0.00 85 1007.4
20260831042029 73 140 0.0 0.0 0.00 0.00 0.00 85 1007.5
20260831041602 73 163 0.0 0.0 0.00 0.00 0.00 85 1007.3
20260831041031 73 146 0.0 0.0 0.00 0.00 0.00 84 1007.3
20260831040528 73 142 0.0 0.0 0.00 0.00 0.00 84 1007.2
20260831040027 73 148 0.0 0.0 0.00 0.00 0.00 84 1007.2
20260831035530 73 148 0.0 0.0 0.00 0.00 0.00 84 1007.3
20260831035025 74 144 0.0 0.0 0.00 0.00 0.00 83 1007.6
20260831034525 74 148 0.0 0.0 0.00 0.00 0.00 83 1007.4
20260831034025 74 140 0.0 0.0 0.00 0.00 0.00 83 1007.4
20260831033525 74 146 0.0 0.0 0.00 0.00 0.00 82 1007.4
20260831033028 74 173 0.0 0.0 0.00 0.00 0.00 82 1007.3
20260831032625 74 132 0.0 0.0 0.00 0.00 0.00 82 1007.3
20260831032026 74 140 0.0 0.0 0.00 0.00 0.00 82 1007.3
20260831031524 74 163 0.0 0.0 0.00 0.00 0.00 81 1007.5
20260831031023 75 141 0.0 0.0 0.00 0.00 0.00 81 1007.5
20260831030522 75 141 0.0 0.0 0.00 0.00 0.00 81 1007.5
20260831030022 75 177 0.0 0.0 0.00 0.00 0.00 81 1007.4
20260831025522 75 136 0.0 0.0 0.00 0.00 0.00 80 1007.3
20260831025021 75 151 0.0 0.0 0.00 0.00 0.00 80 1007.3
20260831024528 75 163 0.0 0.0 0.00 0.00 0.00 80 1007.3
20260831024020 75 197 0.0 0.0 0.00 0.00 0.00 79 1007.4
20260831023521 76 125 0.0 0.0 0.00 0.00 0.00 79 1007.5
20260831023020 76 147 0.0 0.0 0.00 0.00 0.00 79 1007.5
20260831022618 76 153 0.0 0.0 0.00 0.00 0.00 78 1007.5
20260831022018 76 153 0.0 0.0 0.00 0.00 0.00 78 1007.6
20260831021533 76 169 0.0 0.0 0.00 0.00 0.00 78 1007.6
20260831021017 76 168 0.0 0.0 0.00 0.00 0.00 77 1007.7
20260831020522 77 172 0.0 0.0 0.00 0.00 0.00 77 1007.7
20260831020018 77 158 0.0 0.0 0.00 0.00 0.00 76 1007.6
20260831015517 77 156 0.0 0.0 0.00 0.00 0.00 76 1007.5
20260831015017 77 189 0.0 0.0 0.00 0.00 0.00 75 1007.4
20260831014521 77 178 0.0 0.0 0.00 0.00 0.00 75 1007.3
20260831014018 78 141 0.0 0.0 0.00 0.00 0.00 74 1007.4
20260831013517 78 190 0.0 0.0 0.00 0.00 0.00 74 1007.3
20260831013017 78 213 0.0 0.0 0.00 0.00 0.00 73 1007.3
20260831012018 78 149 0.0 0.0 0.00 0.00 0.00 72 1007.1
20260831011538 79 157 0.0 0.0 0.00 0.00 0.00 71 1006.8
20260831011018 79 175 0.0 0.0 0.00 0.00 0.00 71 1006.8
20260831010517 80 360 0.0 0.0 0.00 0.00 0.00 70 1006.9
20260831010017 80 143 0.0 0.0 0.00 0.00 0.00 70 1007.0
20260831005518 81 170 0.0 0.0 0.00 0.00 0.00 71 1007.0
20260831005017 81 148 0.0 0.0 0.00 0.00 0.00 70 1006.9
20260831004517 81 152 0.0 0.0 0.00 0.00 0.00 69 1006.8
20260831004017 81 171 0.0 0.0 0.00 0.00 0.00 69 1006.6
20260831003517 82 150 0.0 0.0 0.00 0.00 0.00 68 1006.5
20260831003017 82 127 0.0 0.0 0.00 0.00 0.00 68 1006.4
20260831002618 83 169 0.0 0.0 0.00 0.00 0.00 67 1006.4
20260831002016 83 173 0.0 0.0 0.00 0.00 0.00 66 1006.4
20260831001516 83 146 0.0 0.0 0.00 0.00 0.00 66 1006.4
20260831001016 83 158 0.0 0.0 0.00 0.00 0.00 65 1006.3
20260831000515 84 194 0.0 0.0 0.00 0.00 0.00 65 1006.3
20260831000015 84 140 0.0 0.0 0.00 0.00 0.00 65 1006.4
20260830235514 84 186 0.0 0.0 0.00 0.00 0.00 64 1006.4
20260830235014 85 191 0.0 0.0 0.00 0.00 0.00 64 1006.4
20260830234514 85 182 0.0 0.0 0.00 0.00 0.00 64 1006.4